When you browse on this site, cookies collect data to enhance your experience and personalize the content and advertising you see.
Visit our Privacy Policy to learn more. By continuing to use the site, you agree to this use of cookies and data.
  • In United Kingdom
  • List of Countries
  • For 7 days
  • Water Temperature
  • Weather Map
  • Weather Widgets
  • user-avatar
    Login

    Hourly Weather Borodenki

    Today, 19 August, Monday

    Time Temperature Precipitation Wind Pressure Humidity
    00:00 +14°C° 0 mm 1 mps 739 mmHg 98%
    01:00 +14°C° 0 mm 1 mps 739 mmHg 98%
    02:00 +14°C° 0 mm 1 mps 740 mmHg 98%
    03:00 +15°C° 0 mm 1 mps 740 mmHg 97%
    04:00 +15°C° 0 mm 1 mps 740 mmHg 97%
    05:00 +15°C° 0 mm 1 mps 740 mmHg 97%
    06:00 +16°C° 0 mm 1 mps 741 mmHg 93%
    07:00 +17°C° 0 mm 2 mps 741 mmHg 90%
    08:00 +18°C° 0 mm 2 mps 742 mmHg 87%
    09:00 +18°C° 0 mm 2 mps 742 mmHg 85%
    10:00 +19°C° 0 mm 2 mps 742 mmHg 82%
    11:00 +20°C° 0 mm 2 mps 743 mmHg 79%
    12:00 +20°C° 0 mm 2 mps 743 mmHg 76%
    13:00 +21°C° 0 mm 2 mps 743 mmHg 72%
    14:00 +23°C° 0 mm 2 mps 744 mmHg 69%
    15:00 +23°C° 0 mm 2 mps 744 mmHg 70%
    16:00 +23°C° 0 mm 1 mps 744 mmHg 71%
    17:00 +23°C° 0 mm 1 mps 744 mmHg 72%
    18:00 +21°C° 0 mm 1 mps 744 mmHg 78%
    19:00 +20°C° 0 mm 1 mps 744 mmHg 84%
    20:00 +18°C° 0 mm 1 mps 745 mmHg 89%
    21:00 +17°C° 0 mm 2 mps 745 mmHg 91%
    22:00 +16°C° 0 mm 2 mps 745 mmHg 92%
    23:00 +16°C° 0 mm 2 mps 745 mmHg 93%

    Tomorrow, 20 August, Tuesday

    Time Temperature Precipitation Wind Pressure Humidity
    00:00 +16°C° 0 mm 2 mps 745 mmHg 94%
    01:00 +16°C° 0 mm 2 mps 745 mmHg 95%
    02:00 +16°C° 0 mm 2 mps 745 mmHg 96%
    03:00 +16°C° 0 mm 2 mps 745 mmHg 96%
    04:00 +16°C° 0 mm 2 mps 745 mmHg 96%
    05:00 +16°C° 0 mm 2 mps 746 mmHg 96%
    06:00 +18°C° 0 mm 2 mps 746 mmHg 90%
    07:00 +19°C° 0 mm 3 mps 746 mmHg 84%
    08:00 +21°C° 0 mm 3 mps 746 mmHg 78%
    09:00 +24°C° 0 mm 3 mps 746 mmHg 73%
    10:00 +25°C° 0 mm 3 mps 746 mmHg 69%
    11:00 +27°C° 0 mm 3 mps 746 mmHg 64%
    12:00 +27°C° 0.1 mm 3 mps 746 mmHg 63%
    13:00 +28°C° 0.1 mm 3 mps 746 mmHg 62%
    14:00 +28°C° 0.1 mm 3 mps 746 mmHg 61%
    15:00 +27°C° 0.8 mm 2 mps 746 mmHg 70%
    16:00 +26°C° 0.8 mm 2 mps 746 mmHg 78%
    17:00 +25°C° 0.8 mm 2 mps 746 mmHg 86%
    18:00 +23°C° 0 mm 1 mps 747 mmHg 89%
    19:00 +22°C° 0 mm 1 mps 747 mmHg 91%
    20:00 +21°C° 0 mm 1 mps 747 mmHg 94%
    21:00 +21°C° 0 mm 1 mps 747 mmHg 94%
    22:00 +20°C° 0 mm 1 mps 747 mmHg 94%
    23:00 +20°C° 0 mm 1 mps 747 mmHg 95%

    Day after tomorrow, 21 August, Wednesday

    Time Temperature Precipitation Wind Pressure Humidity
    00:00 +19°C° 0 mm 1 mps 747 mmHg 95%
    01:00 +17°C° 0 mm 0 mps 748 mmHg 95%
    02:00 +17°C° 0 mm 0 mps 748 mmHg 95%
    03:00 +17°C° 0 mm 0 mps 748 mmHg 95%
    04:00 +17°C° 0 mm 0 mps 748 mmHg 95%
    05:00 +17°C° 0 mm 0 mps 748 mmHg 95%
    06:00 +18°C° 0 mm 0 mps 748 mmHg 92%
    07:00 +22°C° 0 mm 1 mps 748 mmHg 88%
    08:00 +23°C° 0 mm 1 mps 748 mmHg 85%
    09:00 +24°C° 0 mm 1 mps 748 mmHg 79%
    10:00 +26°C° 0 mm 1 mps 748 mmHg 72%
    11:00 +27°C° 0 mm 2 mps 748 mmHg 66%
    12:00 +28°C° 0.2 mm 2 mps 748 mmHg 65%
    13:00 +28°C° 0.2 mm 2 mps 748 mmHg 64%
    14:00 +28°C° 0.2 mm 2 mps 748 mmHg 64%
    15:00 +28°C° 0.1 mm 1 mps 748 mmHg 67%
    16:00 +27°C° 0.1 mm 1 mps 747 mmHg 71%
    17:00 +27°C° 0.1 mm 1 mps 747 mmHg 75%
    18:00 +25°C° 0 mm 1 mps 747 mmHg 79%
    19:00 +23°C° 0 mm 1 mps 747 mmHg 83%
    20:00 +22°C° 0 mm 1 mps 747 mmHg 87%
    21:00 +21°C° 0 mm 1 mps 747 mmHg 88%
    22:00 +21°C° 0 mm 1 mps 747 mmHg 90%
    23:00 +19°C° 0 mm 2 mps 746 mmHg 91%

    22 August, Thursday

    Time Temperature Precipitation Wind Pressure Humidity
    00:00 +20°C° 0 mm 1 mps 746 mmHg 92%
    01:00 +19°C° 0 mm 1 mps 746 mmHg 92%
    02:00 +19°C° 0 mm 1 mps 746 mmHg 93%
    03:00 +19°C° 0 mm 1 mps 746 mmHg 93%
    04:00 +19°C° 0 mm 1 mps 746 mmHg 94%
    05:00 +18°C° 0 mm 1 mps 746 mmHg 94%
    06:00 +20°C° 0 mm 1 mps 746 mmHg 88%
    07:00 +22°C° 0 mm 1 mps 746 mmHg 82%
    08:00 +23°C° 0 mm 1 mps 746 mmHg 76%
    09:00 +24°C° 0.2 mm 1 mps 746 mmHg 73%
    10:00 +25°C° 0.2 mm 2 mps 746 mmHg 71%
    11:00 +26°C° 0.2 mm 2 mps 746 mmHg 68%
    12:00 +26°C° 0.5 mm 2 mps 746 mmHg 70%
    13:00 +26°C° 0.5 mm 2 mps 746 mmHg 72%
    14:00 +25°C° 0.5 mm 2 mps 746 mmHg 73%
    15:00 +24°C° 0.5 mm 2 mps 746 mmHg 79%
    16:00 +23°C° 0.5 mm 2 mps 746 mmHg 84%
    17:00 +21°C° 0.5 mm 3 mps 746 mmHg 89%
    18:00 +20°C° 0.1 mm 2 mps 746 mmHg 92%
    19:00 +18°C° 0.1 mm 2 mps 746 mmHg 94%
    20:00 +17°C° 0.1 mm 2 mps 746 mmHg 97%
    21:00 +17°C° 0.1 mm 2 mps 746 mmHg 97%
    22:00 +16°C° 0.1 mm 2 mps 746 mmHg 97%
    23:00 +16°C° 0.1 mm 2 mps 746 mmHg 97%

    23 August, Friday

    Time Temperature Precipitation Wind Pressure Humidity
    00:00 +16°C° 0.2 mm 2 mps 746 mmHg 97%
    01:00 +16°C° 0.2 mm 2 mps 746 mmHg 97%
    02:00 +16°C° 0.2 mm 2 mps 747 mmHg 97%
    03:00 +16°C° 0.1 mm 2 mps 746 mmHg 97%
    04:00 +16°C° 0.1 mm 2 mps 746 mmHg 97%
    05:00 +15°C° 0.1 mm 2 mps 746 mmHg 96%
    06:00 +16°C° 0 mm 2 mps 746 mmHg 94%
    07:00 +16°C° 0 mm 2 mps 747 mmHg 92%
    08:00 +17°C° 0 mm 2 mps 747 mmHg 90%
    09:00 +18°C° 0 mm 2 mps 747 mmHg 85%
    10:00 +18°C° 0 mm 2 mps 747 mmHg 80%
    11:00 +19°C° 0 mm 2 mps 747 mmHg 76%
    12:00 +20°C° 0 mm 2 mps 747 mmHg 72%
    13:00 +20°C° 0 mm 2 mps 747 mmHg 69%
    14:00 +21°C° 0 mm 2 mps 747 mmHg 65%
    15:00 +20°C° 0.1 mm 2 mps 747 mmHg 69%
    16:00 +20°C° 0.1 mm 2 mps 746 mmHg 73%
    17:00 +19°C° 0.1 mm 2 mps 746 mmHg 78%
    18:00 +18°C° 0.3 mm 3 mps 746 mmHg 82%
    19:00 +15°C° 0.3 mm 4 mps 746 mmHg 87%
    20:00 +14°C° 0.3 mm 5 mps 746 mmHg 91%
    21:00 +13°C° 0.1 mm 4 mps 747 mmHg 92%
    22:00 +12°C° 0.1 mm 4 mps 747 mmHg 92%
    23:00 +11°C° 0.1 mm 3 mps 747 mmHg 93%

    24 August, Saturday

    Time Temperature Precipitation Wind Pressure Humidity
    00:00 +11°C° 0 mm 3 mps 747 mmHg 94%
    01:00 +10°C° 0 mm 2 mps 747 mmHg 96%
    02:00 +10°C° 0 mm 2 mps 747 mmHg 97%
    03:00 +10°C° 0 mm 2 mps 747 mmHg 96%
    04:00 +10°C° 0 mm 3 mps 748 mmHg 96%
    05:00 +10°C° 0 mm 3 mps 748 mmHg 96%
    06:00 +11°C° 0 mm 3 mps 748 mmHg 91%
    07:00 +13°C° 0 mm 4 mps 748 mmHg 86%
    08:00 +14°C° 0 mm 4 mps 749 mmHg 81%
    09:00 +17°C° 0 mm 4 mps 749 mmHg 73%
    10:00 +18°C° 0 mm 4 mps 749 mmHg 66%
    11:00 +20°C° 0 mm 4 mps 749 mmHg 58%
    12:00 +20°C° 0 mm 4 mps 750 mmHg 57%
    13:00 +20°C° 0 mm 4 mps 750 mmHg 56%
    14:00 +21°C° 0 mm 4 mps 750 mmHg 55%
    15:00 +20°C° 0 mm 4 mps 750 mmHg 58%
    16:00 +20°C° 0 mm 3 mps 750 mmHg 62%
    17:00 +19°C° 0 mm 2 mps 750 mmHg 65%
    18:00 +17°C° 0 mm 2 mps 750 mmHg 71%
    19:00 +15°C° 0 mm 2 mps 750 mmHg 76%
    20:00 +13°C° 0 mm 2 mps 750 mmHg 82%
    21:00 +13°C° 0 mm 1 mps 751 mmHg 83%
    22:00 +12°C° 0 mm 1 mps 751 mmHg 84%
    23:00 +12°C° 0 mm 1 mps 751 mmHg 85%
    Show more